Find Local Weather

World > North America > United States > Michigan

Leland, Michigan Regional Weather

Lat: 45.02N, Lon: 85.77W
Wx Zone: MIZ020
Feedback
Expires:201807180000;;638424
ASUS43 KDTX 172310
RWRMI 
MICHIGAN HOURLY REGIONAL WEATHER ROUNDUP
NATIONAL WEATHER SERVICE DETROIT/PONTIAC MI
ISSUED BY NATIONAL WEATHER SERVICE GRAND RAPIDS MI
700 PM EDT TUE JUL 17 2018

NOTE: "FAIR" INDICATES FEW OR NO CLOUDS BELOW 12,000 FEET WITH NO
SIGNIFICANT WEATHER AND/OR OBSTRUCTION TO VISIBILITY.


MIZ016>042-180000-
NORTHERN LOWER MICHIGAN
  
CITY           SKY/WX    TMP DP  RH WIND       PRES   REMARKS
ALPENA         FAIR      73  52  47 N16G25    30.03S                  
BEAVER ISLAND  FAIR      69  50  52 NW10G17   30.09F                  
BELLAIRE       PTSUNNY   67  52  57 NW5       30.08F                  
CADILLAC       FAIR      68  50  53 N10       30.08F                  
CHARLEVOIX     FAIR      68  53  59 NW8       30.11F                  
GAYLORD        FAIR      65  50  58 NW10G17   30.08F                  
HOUGHTON LAKE  FAIR      70  50  49 N13G21    30.07S                  
MANISTEE       FAIR      69  55  60 N8G16     30.08F                  
OSCODA         FAIR      72  53  51 NE16      30.00S                  
PELLSTON       FAIR      70  51  51 NW14G21   30.07F                  
TRAVERSE CITY  FAIR      70  52  52 N10G17    30.08F                  
LUDINGTON      FAIR      69  51  52 N8G20     30.08F                  
$$

SKY/WX - Weather  TMP - Temperature  DP - Dewpoint  RH - Relative Humidity
WIND - Wind Direction/Speed PRES - Barometric Pressure